Regional Weather Roundup
Issued by NWS

Home | Current Version | Previous Version | Graphics & Text | Print | Product List | Glossary On
Versions: 1 2 3 4 5 6 7 8 9 10 11 12 13 14 15 16 17 18 19 20 21 22 23 24 25 26 27
000
ASUS45 KSLC 180110
RWRUT

UTAH REGIONAL WEATHER ROUNDUP
NATIONAL WEATHER SERVICE SALT LAKE CITY UT
600 PM MST FRI NOV 17 2017

UTZ001>011-023>025-180200-

NORTHERN UTAH

CITY           SKY/WX    TMP DP  RH WIND       PRES   REMARKS
BRIGHAM CITY   CLOUDY    38  20  46 NW13      30.13R WCI  31
HILL AFB       PTCLDY    36  23  58 NW12      30.10R WCI  28
LOGAN          CLOUDY    37  22  54 NW10      30.09R WCI  30
OGDEN          MOCLDY    37  23  56 NW15      30.10R WCI  28
SALT LAKE CITY MOCLDY    41  26  55 NW18      30.11R
TOOELE VALLEY  MOCLDY    36  28  75 W10       30.16R WCI  28
WENDOVER       PTCLDY    37  20  50 NW14      30.19R WCI  28
HEBER CITY     CLOUDY    32  28  86 N10       30.03R WCI  24
WEST JORDAN    MOCLDY    36  26  67 W22G30    30.11R WCI  25

$$

UTZ011>015-024>027-180200-

CENTRAL/NORTHEAST UTAH

CITY           SKY/WX    TMP DP  RH WIND       PRES   REMARKS
PROVO AIRPORT  CLOUDY    37  30  75 NW21      30.11R WCI  26
MOAB/CANYONLAN CLOUDY    49  25  39 NW33G48   29.84R
DELTA          CLOUDY    36  27  69 N18G30    30.17R WCI  25
PRICE          CLOUDY    34  22  61 NW17G31   29.99R WCI  23
RICHFIELD      CLOUDY    34  32  93 NE10      30.15R FOG     WCI  26
ROOSEVELT      CLOUDY    37  23  56 W20       29.94R WCI  27
VERNAL         CLOUDY    40  17  39 N14       29.91R WCI  32

$$

UTZ013>016-019>022-027-180200-

SOUTHERN UTAH

CITY           SKY/WX    TMP DP  RH WIND       PRES   REMARKS
BRYCE CANYON   LGT SNOW  32  31  96 W15G24    30.03R FOG     WCI  22
CEDAR CITY     LGT RAIN  37  35  92 NE13G28   30.10R WCI  29
MILFORD        CLOUDY    37  31  78 NE20G25   30.12R WCI  27
ST GEORGE      CLOUDY    61  43  51 N25G33    29.93R
HANKSVILLE     CLOUDY    50  27  40 W23G37    29.96R
KANAB          MOCLDY    59  36  41 SW22G31   29.96R
BLANDING         N/A     56  28  34 W22G30    29.91R

$$

REGIONAL REPORTS     COLORADO/ARIZONA

CITY           SKY/WX    TMP DP  RH WIND       PRES   REMARKS
CRAIG, CO      LGT SNOW  33  28  81 NW10G20   29.93R WCI  25
GRAND JUNCTION CLOUDY    47  40  76 W15       29.80R
RIFLE, CO      LGT RAIN  42  34  73 W18G31    29.81R
MONTROSE, CO   CLOUDY    55  34  45 SW15G32   29.74F
CORTEZ, CO     CLOUDY    55  35  47 SW26G35   29.87S
COLORADO CITY    N/A     59  37  44 W18G30    29.94S
PAGE, AZ       CLEAR     65  32  29 W16G28    29.85R
GRAND CANYON   CLOUDY    50  34  54 SW12      30.07R
KINGMAN, AZ    CLOUDY    63  38  39 SE13      29.98S
FLAGSTAFF, AZ  MOCLDY    43  36  76 SW9       30.10F

$$

REGIONAL REPORTS    NEVADA/IDAHO/WYOMING

CITY           SKY/WX    TMP DP  RH WIND       PRES   REMARKS
LAS VEGAS, NV  PTCLDY    73  39  29 W10       29.91R
ELY, NY        PTCLDY    29  18  63 N8        30.19R WCI  21
ELKO, NV       PTCLDY    31  23  72 NW7       30.21R WCI  24
POCATELLO, ID  PTCLDY    34  25  69 W15       30.07R WCI  24
BURLEY, ID     PTCLDY    34  23  64 W16G25    30.13R WCI  24
FORT BRIDGER,    N/A     25  21  86 W15       30.02R WCI  12
EVANSTON, WY   CLEAR     20  15  81 W15       30.01R WCI   6
ROCK SPRINGS,  CLOUDY    26  21  81 W30G40    29.93R WCI  10

$$




USA.gov is the U.S. government's official web portal to all federal, state and local government web resources and services.